Ashland, MO

2:44 AM CST on February 09, 2016 (GMT -0600)
Columbia Regional

Weather History for KCOU - April, 2014

Change the Weather History Date:

Sunday, April 20, 2014

  Actual Average Record
Temperature  
Mean Temperature 68 °F 57 °F  
Max Temperature 81 °F 68 °F 90 °F (1987)
Min Temperature 54 °F 46 °F 28 °F (1953)
Degree Days  
Heating Degree Days 0 9  
Month to date heating degree days 242 242  
Since 1 July heating degree days 5401 4824  
Cooling Degree Days 3 1  
Month to date cooling degree days 8 13  
Year to date cooling degree days 8 16  
Growing Degree Days 18 (Base 50)    
Moisture  
Dew Point 47 °F    
Average Humidity 47    
Maximum Humidity 61    
Minimum Humidity 33    
Precipitation  
Precipitation 0.00 in 0.16 in 1.95 in (1893)
Month to date precipitation 6.90 2.79  
Year to date precipitation 10.39 9.87  
Snow  
Snow 0.00 in 0.00 in 0.80 in (1904)
Month to date snowfall T 0.2  
Since 1 July snowfall 17.8 18.0  
Snow Depth 0.00 in    
Sea Level Pressure  
Sea Level Pressure 30.09 in    
Wind  
Wind Speed 9 mph (South)    
Max Wind Speed 17 mph    
Max Gust Speed 21 mph    
Visibility 10 miles    
Events      
T = Trace of Precipitation, MM = Missing Value Source: NWS Daily Summary

Daily Weather History Graph

Daily Weather History Graph

Search for Another Location

Airport or City:

Trip Planner

Search our weather history database for the weather conditions in past years. The results will help you decide how hot, cold, wet, or windy it might be!

Date:

Astronomy

Apr. 20, 2014 Rise Set
Actual Time 6:25 AM CDT 7:50 PM CDT
Civil Twilight 5:57 AM CDT 8:18 PM CDT
Nautical Twilight 5:24 AM CDT 8:52 PM CDT
Astronomical Twilight 4:49 AM CDT 9:27 PM CDT
Moon 12:29 AM CDT (4/20) 10:47 AM CDT (4/20)
Length of Visible Light 14h 21m
Length of Day
13h 25m
Waning Gibbous, 68% of the Moon is Illuminated
Apr 20
Waning Gibbous
Apr 22
Last Quarter
Apr 29
New
May 6
First Quarter
May 14
Full

Hourly Weather History & Observations

Time (CDT) Temp. Dew Point Humidity Pressure Visibility Wind Dir Wind Speed Gust Speed Precip Events Conditions
12:54 AM 59.0 °F 41.0 °F 51% 30.13 in 10.0 mi SE 6.9 mph - N/A   Clear
1:54 AM 59.0 °F 41.0 °F 51% 30.14 in 10.0 mi SE 6.9 mph - N/A   Clear
2:54 AM 55.9 °F 39.9 °F 55% 30.14 in 10.0 mi SSE 10.4 mph - N/A   Clear
3:54 AM 57.9 °F 41.0 °F 53% 30.15 in 10.0 mi South 11.5 mph - N/A   Clear
4:54 AM 55.9 °F 41.0 °F 57% 30.14 in 10.0 mi SSE 10.4 mph - N/A   Clear
5:54 AM 55.0 °F 41.0 °F 59% 30.14 in 10.0 mi SE 9.2 mph - N/A   Clear
6:54 AM 55.0 °F 42.1 °F 62% 30.15 in 10.0 mi SSE 8.1 mph - N/A   Clear
7:54 AM 59.0 °F 44.1 °F 58% 30.15 in 10.0 mi South 8.1 mph - N/A   Clear
8:54 AM 64.9 °F 46.0 °F 50% 30.15 in 10.0 mi South 11.5 mph - N/A   Clear
9:54 AM 70.0 °F 48.9 °F 47% 30.14 in 10.0 mi SSW 11.5 mph - N/A   Clear
10:54 AM 73.9 °F 51.1 °F 45% 30.14 in 10.0 mi South 8.1 mph - N/A   Clear
11:54 AM 75.9 °F 51.1 °F 42% 30.13 in 10.0 mi SW 8.1 mph - N/A   Clear
12:54 PM 77.0 °F 51.1 °F 40% 30.10 in 10.0 mi SW 12.7 mph - N/A   Scattered Clouds
1:54 PM 80.1 °F 50.0 °F 35% 30.08 in 10.0 mi South 10.4 mph 16.1 mph N/A   Clear
2:54 PM 79.0 °F 48.9 °F 35% 30.07 in 10.0 mi SSW 9.2 mph 18.4 mph N/A   Partly Cloudy
3:54 PM 78.1 °F 50.0 °F 37% 30.05 in 10.0 mi SSW 6.9 mph - N/A   Mostly Cloudy
4:54 PM 80.1 °F 48.9 °F 34% 30.04 in 10.0 mi SSW 13.8 mph - N/A   Scattered Clouds
5:54 PM 77.0 °F 48.2 °F 36% 30.04 in 10.0 mi South 10.4 mph - N/A   Clear
6:54 PM 73.9 °F 51.1 °F 45% 30.01 in 10.0 mi SSW 5.8 mph - N/A   Clear
7:54 PM 70.0 °F 51.1 °F 51% 30.01 in 10.0 mi SSW 8.1 mph - N/A   Clear
8:54 PM 70.0 °F 50.0 °F 49% 30.01 in 10.0 mi SSW 5.8 mph - N/A   Clear
9:54 PM 70.0 °F 48.9 °F 47% 30.01 in 10.0 mi South 3.5 mph - N/A   Clear
10:54 PM 68.0 °F 50.0 °F 52% 30.01 in 10.0 mi WSW 5.8 mph - N/A   Clear
11:54 PM 66.9 °F 50.0 °F 54% 30.01 in 10.0 mi WSW 4.6 mph - N/A   Clear